Weather History for EGXE - November, 2011

Change the Weather History Date:

Saturday, November 19, 2011

  Actual Average (EGNV) Record (EGNV)
Temperature  
Mean Temperature 44 °F -  
Max Temperature 46 °F 45 °F 59 °F (2003)
Min Temperature 42 °F 35 °F 23 °F (2005)
Degree Days  
Heating Degree Days 21    
Moisture  
Dew Point 44 °F    
Average Humidity 96    
Maximum Humidity 100    
Minimum Humidity 86    
Precipitation  
Precipitation 0.00 in 0.07 in - ()
Sea Level Pressure  
Sea Level Pressure 30.01 in    
Wind  
Wind Speed 8 mph ()    
Max Wind Speed 12 mph    
Max Gust Speed -    
Visibility 2.2 miles    
Events Fog    
Averages and records for this station are not official NWS values.
T = Trace of Precipitation, MM = Missing Value Source: Averaged Metar Reports

Daily Weather History Graph

Daily Weather History Graph

Search for Another Location

Airport or City:

Trip Planner

Search our weather history database for the weather conditions in past years. The results will help you decide how hot, cold, wet, or windy it might be!

Date:

Astronomy

Nov. 19, 2011 Rise Set
Actual Time 7:41 AM GMT 4:00 PM GMT
Civil Twilight 7:01 AM GMT 4:41 PM GMT
Nautical Twilight 6:17 AM GMT 5:25 PM GMT
Astronomical Twilight 5:34 AM GMT 6:07 PM GMT
Moon No Moon Rise 1:04 PM GMT (11/19)
Length of Visible Light 9h 39m
Length of Day
8h 18m
Last Quarter, 40% of the Moon is Illuminated
Nov 19
Last Quarter
Nov 25
New
Dec 2
First Quarter
Dec 10
Full
Dec 18
Last Quarter

Hourly Weather History & Observations

Time (GMT) Temp. Windchill Dew Point Humidity Pressure Visibility Wind Dir Wind Speed Gust Speed Precip Events Conditions
12:50 AM 48.2 °F - 46.4 °F 93% 29.95 in 3.1 mi SE 10.4 mph - N/A   Mostly Cloudy
1:50 AM 46.4 °F 41.9 °F 46.4 °F 100% 29.95 in 3.1 mi SSE 9.2 mph - N/A   Mostly Cloudy
2:50 AM 46 °F - 45 °F 96% 29.97 in 4 mi SSE 6.9 mph - -   Mist
2:50 AM 46.4 °F 42.9 °F 44.6 °F 93% 29.95 in 3.7 mi SSE 6.9 mph - N/A   Mostly Cloudy
3:50 AM 44.6 °F 40.2 °F 44.6 °F 100% 29.95 in 2.2 mi SE 8.1 mph - N/A   Mostly Cloudy
4:50 AM 44.6 °F 40.2 °F 44.6 °F 100% 29.95 in - SSE 8.1 mph - N/A Fog Fog
5:50 AM 45 °F - 45 °F 98% 29.98 in 0 mi SSE 11.5 mph - - Fog Fog
5:50 AM 44.6 °F 38.8 °F 44.6 °F 100% 29.98 in 0.1 mi SSE 11.5 mph - N/A Fog Fog
7:50 AM 44.6 °F 39.7 °F 44.6 °F 100% 29.98 in 0.2 mi SSE 9.2 mph - N/A Fog Fog
8:50 AM 43 °F - 43 °F 100% 30.02 in 0 mi SSE 10.4 mph - - Fog Partial Fog
8:50 AM 42.8 °F 37.0 °F 42.8 °F 100% 30.01 in 0.3 mi SSE 10.4 mph - N/A Fog Fog
9:50 AM 42.8 °F 38.0 °F 42.8 °F 100% 30.01 in 0.2 mi South 8.1 mph - N/A Fog Fog
10:50 AM 44.6 °F 40.2 °F 44.6 °F 100% 30.01 in 0.8 mi SSE 8.1 mph - N/A   Overcast
11:50 AM 44 °F - 44 °F 98% 30.02 in 2 mi SSE 9.2 mph - -   Mist
11:50 AM 44.6 °F 39.7 °F 44.6 °F 100% 30.01 in 1.6 mi SSE 9.2 mph - N/A   Mostly Cloudy
12:50 PM 46.4 °F 41.1 °F 44.6 °F 93% 30.01 in 3.1 mi South 11.5 mph - N/A   Haze
1:50 PM 46.4 °F 41.1 °F 42.8 °F 87% 30.01 in 5.0 mi SSE 11.5 mph - N/A   Haze
2:50 PM 46 °F - 43 °F 86% 30.00 in 6 mi South 6.9 mph - -   Haze
2:50 PM 46.4 °F 42.9 °F 42.8 °F 87% 29.98 in 5.6 mi South 6.9 mph - N/A   Haze
3:50 PM 42.8 °F 41.1 °F 41.0 °F 93% 30.01 in 5.6 mi West 3.5 mph - N/A   Haze
4:50 PM 42.8 °F 41.1 °F 41.0 °F 93% 30.01 in - SW 3.5 mph - N/A   Scattered Clouds
5:50 PM 44 °F - 42 °F 91% 30.04 in 3 mi South 4.6 mph - -   Mist
5:50 PM 42.8 °F 40.1 °F 42.8 °F 100% 30.04 in - South 4.6 mph - N/A   Partly Cloudy
6:50 PM 42.8 °F 38.0 °F 42.8 °F 100% 30.04 in - SSE 8.1 mph - N/A   Partly Cloudy
7:50 PM 44.6 °F 41.4 °F 44.6 °F 100% 30.04 in - SE 5.8 mph - N/A   Mostly Cloudy
8:50 PM 44 °F - 44 °F 97% 30.06 in 2 mi SSE 5.8 mph - -   Mist
8:50 PM 44.6 °F 41.4 °F 42.8 °F 93% 30.04 in - SSE 5.8 mph - N/A   Overcast
9:50 PM 42.8 °F 39.3 °F 42.8 °F 100% 30.04 in 1.1 mi SSW 5.8 mph - N/A   Mostly Cloudy
10:50 PM 44.6 °F 40.7 °F 44.6 °F 100% 30.06 in 1.1 mi South 6.9 mph - N/A   Mostly Cloudy
11:50 PM 44 °F - 44 °F 97% 30.07 in 1 mi SSE 8.1 mph - -   Mist
11:50 PM 44.6 °F 40.2 °F 42.8 °F 93% 30.04 in 1.1 mi SSE 8.1 mph - N/A   Overcast